sat.trackr.live / text

‹ back to catalog

STARLINK-4479

NORAD 53415 · 2022-097AD

PAYLOAD ACTIVE UNKNOWN

§ Identity

Operator
Country
US
Launch date
2022-08-10
Launch site
AFETR
Launch vehicle
Mass (kg)
RCS (m²)

Purposes: comms

External: N2YO · Heavens-Above · Gunter

§ Orbital elements

Epoch: 2026-05-25T03:10:28.572960Z

Period
95.44 min
Inclination
53.2154°
Eccentricity
0.0001261
Mean motion
15.08848936 rev/d
Perigee alt
538.8 km
Apogee alt
540.6 km
Semi-major
6,917.9 km
B*
8.4276e-5
RAAN
130.9540°
Arg perigee
52.4669°
Mean anomaly
307.6438°
Rev number
21,016

§ Raw data

STARLINK-44791 53415U 22097AD  26145.13227515  .00001054  00000+0  84276-4 0  99922 53415  53.2154 130.9540 0001261  52.4669 307.6438 15.08848936210167

JSON: /api/v1/satellites/53415 · /tle

For live sub-satellite position, see the globe view (requires WebGL).

§ Visibility from observer

Set your observer location to see the next 7 days of passes ≥ 10°. The values pass through the URL so the page stays shareable.

No JS? Fill the form by hand. The geolocation button needs JavaScript.